Showing default

LASARSAT, 62391

Orbit data source: Space-Track

LASARSAT, 62391 is a Czech payload satellite in LEO that was launched on Sat, 21 Dec 2024 UTC via an FALCON 9 launch vehicle from the Air Force Western Test Range (AFWTR). Payload-class satellites include a variety of spacecraft equipped with specific instruments for various scientific and technological missions. These include communications satellites like Starlink; space stations such as the ISS; scientific satellites like the Hubble; Earth observation satellites from companies like Planet Labs, Umbra, and HawkEye 360; GPS; miniature CubeSats for education and research; and military/defense satellites.

Loading next visibility...
Identifier
62391, 2024-247Q
Orbit
LEO
Country
Flag of CZCZ / CZE
Related business
None
Manufacturer
LASAR
Mission
Operational Amateur Technology
Bus & Motor
CUBESAT 1U, Unknown motor
Mass
1 kg wet, 1 kg dry
Launch date (UTC)
2024-12-21 (1 year ago)
Launch vehicle
FALCON 9
Launch site
Air Force Western Test Range (AFWTR)
Object type
Payload
Rocket body
Debris
Shape & HBR
Box, 0.1 m
Radar Cross Section
0.015 m², Small (<0.1 m²)

Expand to show TLE details & history
Last TLE update: 16 hours ago

TLE from 16 hours ago
0 LASARSAT
1 62391U 24247Q   26094.03099426  .00055577  00000-0  12740-2 0  9999
2 62391  44.9765 317.4987 0005380 237.3439 122.6930 15.42003564 71858
Epoch: 2026-04-04T00:44Z
TLE epoch observation values (Epoch: 2026-04-04T00:44:37.904Z)
Latitude
-0.00004°
Longitude
113.98412°
Altitude
442.175 km
Speed
7.647 km/s
True Right ascension
21h 09m 59s
True Declination
0° 00' 00"
Sunlit
Object was in daylight at epoch
Visualization orbit readout
Latitude
Unknown
Longitude
Unknown
Altitude
Unknown
Speed
Unknown
Apparent Right ascension
Unknown
Apparent Declination
Unknown
Sunlit
N/A
Visualization observer readout
Local Sidereal Time
22:15:52
Azimuth
Unknown
Elevation
Unknown
Doppler factor
Unknown
Orbital elements
Apogee altitude
445.489 km
Perigee altitude
438.151 km
Semi-major axis
6,819.957 km
Eccentricity
0.00054
Inclination
44.9765°
RAAN
317.4987°
Arg. of periapsis
237.3439°
True anomaly
122.74486°
Mean anomaly
122.693°
Eccentric anomaly
122.71893°
Mean motion
3.85364 °/min
Orbital period
93.42 mins
BSTAR
0.001274
Loading maneuver chart data...
Computing Atmospheric mass density...
Loading historical data...
Loading historical data...
Loading historical data...
Loading historical data...
Loading historical data...
Loading historical data...
Loading historical data...

Documentation

Showing up to 5 results
|